Wind_Speed
96 100 96 93 87 79 69 58 45 32 19 11 2 11 23 28 31 39 50 56 65 73 82 97 94 87 96 104 103 100 98 98 95 92 87 85 83 81 77 73 73 71 69 69 68 65 62
94 102 103 98 90 86 73 61 51 38 28 17 7 3 13 24 32 39 43 54 60 64 77 90 93 87 87 95 99 98 98 96 94 91 88 83 81 78 78 77 73 71 70 69 66 64 63
91 103 105 101 94 90 74 64 57 47 36 25 15 7 6 15 29 36 42 52 54 60 71 84 92 86 82 87 91 93 97 95 90 90 87 83 80 76 77 76 73 72 72 69 67 65 65
87 98 103 106 101 96 84 71 61 55 44 34 24 18 10 14 25 35 43 51 52 57 64 78 87 89 81 80 86 87 92 94 92 87 84 82 78 72 74 76 75 74 73 71 70 71 72
83 92 102 108 106 99 94 78 69 58 50 43 33 24 19 14 22 33 41 49 53 56 62 72 75 79 76 75 79 82 85 88 88 89 81 78 75 74 73 75 77 77 77 75 74 74 75
79 89 96 104 108 103 97 89 77 65 55 46 40 34 26 21 21 31 40 47 53 55 61 67 73 79 76 72 71 76 77 76 78 82 77 77 75 73 72 74 75 75 74 75 76 76 77
74 83 91 100 106 106 101 95 84 74 66 55 48 44 37 30 25 27 30 39 46 49 54 62 70 76 68 61 62 67 71 71 71 71 71 76 76 74 72 71 71 70 67 68 71 73 73
68 76 84 91 101 107 105 99 93 84 74 64 54 58 52 43 28 25 28 32 34 34 41 41 62 66 61 56 55 57 62 67 66 67 69 73 75 74 72 69 69 68 66 64 63 64 65
62 70 78 82 92 100 106 105 99 92 86 74 67 60 59 56 42 27 26 25 26 30 34 44 59 62 55 50 47 46 49 52 58 62 65 68 72 71 70 68 67 63 61 60 60 60 61
56 63 70 77 84 92 97 104 108 100 93 85 73 67 59 50 44 38 24 28 36 40 51 53 54 54 48 41 39 37 39 42 47 53 58 64 67 68 68 66 62 59 59 60 60 59 58
51 56 62 70 76 83 90 96 102 102 95 89 83 67 60 52 44 47 37 36 39 48 50 51 47 40 34 30 26 23 26 31 38 44 51 55 60 62 61 60 59 56 52 52 53 58 61
45 50 55 62 69 74 81 86 94 98 99 93 84 78 63 55 43 41 47 45 46 49 48 42 38 34 30 27 22 19 23 30 36 39 42 44 43 42 42 40 40 42 45 48 51 54 57
37 43 49 53 61 66 71 78 83 89 93 95 93 82 74 63 49 38 36 39 40 38 35 36 34 33 32 29 24 21 22 23 23 23 23 23 22 22 24 26 28 30 36 38 37 34 30
31 37 42 47 51 57 63 69 73 78 83 86 91 91 82 70 61 46 37 26 25 27 31 28 29 29 26 25 24 24 27 30 29 29 26 23 21 18 17 18 19 20 20 19 24 26 28
25 30 34 39 44 48 54 59 64 68 70 74 79 83 87 82 68 63 51 33 27 17 16 19 20 21 22 22 22 24 24 23 23 20 17 18 17 18 18 18 16 15 18 19 18 15 12
17 23 28 31 36 40 44 51 54 59 63 66 69 75 77 79 79 76 67 60 47 31 22 19 19 18 17 18 20 23 23 24 20 19 20 21 22 20 16 12 12 11 6 5 6 13 22
15 15 20 24 28 33 36 40 46 50 55 57 61 65 65 70 73 75 78 73 63 55 48 38 25 18 18 24 27 29 28 26 23 21 23 22 18 14 11 11 18 22 23 25 26 24 19
8 11 12 17 21 25 29 32 36 40 44 47 51 54 57 60 63 65 68 69 70 68 64 56 48 43 38 32 25 18 16 16 17 17 15 14 16 23 33 32 30 29 28 25 20 17 17
8 10 7 9 15 17 21 24 27 31 35 38 40 45 46 49 53 56 58 58 61 62 62 61 60 58 55 48 42 37 34 31 27 26 28 32 34 33 30 30 26 24 20 17 14 12 10
9 12 12 6 7 13 14 17 20 23 26 28 31 33 38 38 42 42 43 47 48 49 53 53 51 50 49 50 50 47 45 42 40 37 36 33 27 27 22 21 17 13 8 11 12 9 13
10 13 7 9 7 4 10 15 13 15 17 22 23 24 26 30 34 34 37 38 39 38 39 41 41 42 43 43 39 39 36 35 32 30 25 24 25 24 25 21 19 18 19 19 19 16 13
13 10 7 7 9 8 4 5 9 10 14 15 19 19 18 22 22 26 29 29 31 30 32 32 30 29 28 30 31 29 25 24 23 19 18 15 13 15 18 13 14 10 14 19 18 12 15
20 15 9 6 8 6 6 5 6 6 8 10 11 14 16 16 19 16 18 21 22 21 22 24 24 25 25 21 23 22 20 18 18 16 14 15 13 14 14 17 17 15 13 16 19 21 24
32 27 21 12 13 13 8 7 5 7 8 5 8 8 9 12 12 12 13 10 14 15 17 17 19 17 18 19 19 17 16 14 13 13 12 10 12 13 13 15 17 18 18 20 23 22 24
39 36 33 28 20 17 15 15 8 11 9 14 9 8 7 9 11 12 13 12 11 9 12 12 17 18 16 15 13 15 16 14 14 13 14 16 18 21 22 24 25 25 24 28 32 28 29
46 44 42 39 36 30 21 22 17 16 14 14 13 11 6 9 10 12 12 12 16 18 18 20 15 18 22 18 18 18 17 16 15 19 22 22 24 25 27 30 33 33 31 32 35 37 40
55 53 48 45 43 41 33 29 30 27 22 20 16 18 16 21 17 19 17 18 17 21 22 22 19 21 25 27 27 25 24 25 25 26 29 29 30 32 34 34 38 41 41 42 44 45 49
59 59 57 53 51 48 46 43 37 33 32 30 28 26 25 23 25 27 25 24 23 23 24 22 25 26 25 30 32 34 36 36 38 39 40 37 39 38 37 40 40 43 47 50 50 54 54
69 64 63 60 57 53 52 53 50 44 39 36 33 31 32 33 33 33 33 31 29 29 31 32 34 34 33 36 39 38 38 39 42 43 43 46 50 55 50 49 53 50 48 51 56 60 63
Wind_Direction
7 7 10 12 13 9 10 13 11 10 5 357 250 216 210 197 198 202 202 201 202 202 202 205 208 209 211 213 214 215 215 218 220 223 223 225 225 228 231 233 237 241 243 247 250 252 255
11 10 14 17 17 16 13 17 18 19 19 22 33 202 196 194 185 191 197 192 197 198 199 202 207 206 209 212 214 214 214 217 220 221 224 224 225 228 230 233 236 240 244 246 249 252 256
15 13 15 20 20 22 18 20 25 26 31 31 41 52 139 174 175 183 183 187 189 189 196 201 203 204 208 211 211 213 215 216 219 222 224 225 227 228 229 232 237 239 242 246 249 252 255
18 18 18 21 23 25 24 26 26 30 34 39 48 58 87 146 170 173 174 180 182 185 193 200 200 200 206 210 211 213 215 217 219 222 223 226 228 228 230 231 235 238 241 246 250 253 256
18 22 20 22 26 26 29 29 32 32 39 45 50 58 78 114 154 167 168 176 180 184 191 201 195 197 204 207 210 213 214 218 219 221 223 225 228 230 231 233 236 238 241 245 250 253 257
19 22 22 23 25 28 28 35 32 35 37 46 54 59 76 95 133 156 167 176 178 184 191 194 189 191 200 205 208 211 213 217 219 221 222 225 228 230 232 234 238 240 244 248 251 254 257
18 24 25 23 27 29 31 32 40 38 38 44 55 60 70 85 113 143 161 165 175 185 186 193 185 189 197 202 208 213 215 217 220 220 222 224 229 231 231 235 238 242 246 250 253 255 258
20 24 28 27 28 31 33 33 37 43 45 47 56 68 67 73 87 112 138 157 175 179 181 177 186 188 193 199 205 211 216 219 219 219 220 223 228 229 231 235 240 243 247 251 255 259 261
21 25 29 28 30 31 33 36 35 39 44 49 52 55 69 66 68 89 126 146 140 147 149 161 178 185 191 199 210 217 218 219 219 222 224 225 226 228 231 235 240 243 250 255 257 260 263
23 26 30 31 32 33 35 37 38 37 40 46 51 54 55 72 78 71 78 117 131 143 150 155 166 179 189 202 209 213 216 216 217 217 219 221 224 228 232 237 243 248 250 254 258 262 266
24 26 29 33 33 36 37 36 37 38 40 43 46 51 56 64 86 97 105 121 134 139 146 151 160 170 181 187 188 190 204 211 214 215 217 220 225 230 235 241 245 250 253 256 259 261 263
22 27 30 32 36 36 38 39 39 40 42 45 46 51 54 59 69 94 110 119 126 134 142 150 154 160 163 153 156 170 184 196 202 206 211 216 223 230 238 241 245 245 249 256 260 261 263
20 25 30 33 37 38 40 41 43 44 43 44 47 50 52 56 67 83 108 122 128 132 139 145 147 149 147 148 141 137 140 146 157 168 174 176 180 192 206 219 229 236 241 247 253 267 273
15 23 30 34 36 39 41 45 46 46 46 47 48 49 53 55 59 68 91 109 122 127 135 138 141 145 145 144 135 130 126 126 128 135 141 146 154 165 178 195 209 226 241 258 268 275 280
12 20 26 33 36 36 41 45 48 48 49 48 52 51 50 54 61 62 70 84 117 125 138 144 148 152 152 151 149 143 140 139 139 142 147 154 164 177 194 213 229 252 261 264 268 272 277
12 17 24 29 34 38 38 43 47 50 50 53 54 55 55 54 56 60 67 68 74 85 108 129 139 152 160 164 164 163 160 158 162 163 167 175 184 199 213 225 235 234 216 192 141 112 115
352 21 22 28 35 36 40 41 44 49 54 53 54 56 56 56 56 57 59 63 70 74 77 83 95 122 155 174 182 183 181 182 182 181 182 188 197 203 199 173 139 126 124 121 119 119 108
360 351 31 34 34 38 40 40 44 47 49 56 55 55 58 60 59 61 63 63 63 63 69 78 82 84 87 92 102 122 150 160 157 155 150 146 151 139 128 125 123 127 128 128 124 117 109
3 349 343 31 37 33 35 42 42 45 45 49 58 57 57 58 61 60 64 66 69 67 67 68 71 74 78 83 89 95 101 107 112 118 122 122 123 120 116 120 117 115 116 113 98 98 71
2 13 354 324 46 41 35 35 42 40 42 45 48 55 56 59 58 61 66 68 68 66 66 70 75 77 75 77 81 81 84 86 91 104 104 100 106 105 94 81 89 76 67 46 45 39 32
309 330 357 357 316 26 39 42 29 41 40 38 40 41 60 59 54 57 58 60 66 68 69 70 72 77 77 74 78 77 78 78 83 80 89 76 71 57 49 46 44 31 29 26 21 12 11
281 298 321 313 353 360 330 357 22 17 28 30 27 36 35 38 59 52 49 51 52 58 60 64 66 68 73 66 58 69 81 82 82 86 79 75 57 44 37 26 26 17 5 6 359 344 343
261 260 275 292 295 318 337 9 332 331 22 37 29 21 23 34 37 36 34 33 33 43 43 43 48 49 54 54 43 42 48 50 56 60 50 44 34 23 14 12 5 358 333 337 344 338 332
255 256 259 256 275 298 288 321 337 331 295 348 9 19 1 2 5 12 29 18 22 15 8 12 21 26 28 23 30 28 15 16 16 11 4 1 354 343 345 340 344 338 332 327 323 324 319
251 254 256 259 252 271 273 283 296 308 318 305 292 317 347 340 342 347 335 339 354 6 1 337 337 349 351 356 356 358 353 349 339 329 325 320 316 314 315 314 316 323 321 315 315 314 304
250 254 256 254 258 252 253 257 270 277 295 309 314 282 301 305 326 330 334 322 325 323 334 348 316 310 318 327 333 331 325 319 319 326 311 308 308 304 307 309 306 310 308 308 309 310 307
256 252 257 259 258 260 256 248 257 272 281 278 271 285 298 278 283 298 292 302 308 303 305 311 316 311 304 312 312 307 308 313 311 306 309 311 308 305 305 302 308 312 302 302 307 309 313
258 257 256 257 259 258 261 259 255 254 269 275 272 281 280 283 288 285 286 279 285 294 289 293 298 301 296 300 305 308 306 307 306 305 303 299 301 300 297 297 308 308 302 301 303 302 300
255 254 255 257 259 257 259 262 260 264 260 261 267 272 278 281 281 283 282 283 289 287 290 287 294 298 295 295 298 296 289 289 289 293 295 296 301 301 295 301 297 295 300 302 301 298 301
Height
10588 10560 10526 10491 10460 10433 10408 10390 10375 10362 10352 10345 10342 10341 10342 10348 10359 10372 10387 10405 10421 10438 10460 10474 10493 10523 10542 10564 10583 10602 10620 10635 10651 10665 10680 10693 10707 10718 10731 10741 10749 10756 10763 10769 10774 10780 10785
10591 10560 10528 10496 10466 10438 10416 10398 10380 10366 10355 10349 10344 10342 10344 10348 10356 10366 10382 10400 10416 10435 10452 10469 10489 10515 10537 10556 10575 10594 10612 10629 10643 10657 10672 10685 10698 10712 10723 10733 10742 10749 10756 10762 10768 10772 10777
10596 10567 10537 10504 10474 10451 10428 10405 10389 10373 10362 10354 10348 10345 10346 10351 10358 10366 10379 10395 10415 10433 10446 10461 10484 10512 10533 10549 10569 10588 10606 10622 10635 10650 10666 10680 10692 10704 10715 10726 10735 10742 10748 10754 10760 10764 10766
10603 10576 10547 10516 10487 10461 10438 10417 10399 10381 10368 10358 10354 10351 10351 10354 10360 10367 10379 10395 10414 10431 10446 10457 10480 10509 10531 10549 10567 10584 10600 10616 10631 10645 10661 10675 10686 10697 10708 10717 10725 10732 10741 10746 10751 10754 10756
10611 10587 10561 10531 10501 10476 10454 10432 10413 10396 10381 10369 10361 10358 10357 10360 10365 10373 10382 10397 10414 10430 10444 10453 10489 10519 10533 10547 10564 10580 10596 10612 10627 10640 10656 10669 10680 10690 10700 10710 10718 10724 10730 10736 10741 10745 10748
10617 10595 10573 10548 10519 10492 10468 10449 10427 10410 10395 10384 10375 10370 10367 10369 10374 10381 10389 10401 10417 10430 10443 10459 10489 10516 10531 10548 10564 10579 10595 10609 10623 10637 10653 10663 10673 10685 10695 10702 10710 10716 10724 10728 10733 10737 10739
10627 10606 10584 10563 10538 10511 10486 10464 10447 10427 10412 10398 10389 10384 10381 10382 10387 10392 10401 10415 10427 10436 10451 10466 10495 10515 10536 10555 10568 10581 10594 10607 10620 10634 10648 10658 10667 10677 10687 10695 10702 10709 10714 10719 10724 10728 10730
10636 10618 10599 10579 10557 10532 10507 10484 10466 10449 10433 10419 10408 10399 10398 10399 10402 10408 10417 10429 10438 10452 10467 10491 10510 10526 10543 10557 10570 10582 10594 10606 10617 10629 10641 10651 10660 10670 10679 10687 10695 10701 10706 10712 10717 10720 10721
10645 10631 10612 10595 10576 10553 10531 10507 10485 10468 10452 10437 10428 10419 10413 10417 10422 10427 10433 10441 10455 10469 10483 10498 10517 10535 10550 10563 10573 10582 10591 10602 10613 10624 10635 10645 10654 10663 10673 10681 10688 10695 10701 10705 10708 10711 10712
10652 10640 10626 10610 10594 10575 10552 10531 10509 10489 10473 10460 10450 10442 10439 10437 10437 10445 10451 10459 10466 10477 10487 10505 10526 10543 10557 10567 10577 10584 10592 10600 10609 10619 10629 10639 10648 10658 10667 10675 10683 10689 10693 10697 10699 10702 10702
10660 10650 10638 10623 10608 10593 10576 10555 10536 10519 10498 10486 10474 10464 10460 10460 10459 10454 10463 10470 10478 10490 10503 10520 10536 10551 10563 10571 10578 10584 10590 10598 10606 10616 10625 10635 10644 10654 10663 10671 10678 10682 10686 10688 10690 10689 10688
10668 10658 10648 10637 10623 10609 10595 10579 10563 10544 10529 10514 10501 10495 10486 10481 10480 10480 10477 10486 10497 10508 10519 10533 10545 10557 10565 10573 10580 10585 10589 10595 10603 10612 10621 10632 10642 10653 10662 10667 10671 10673 10676 10679 10680 10679 10678
10674 10666 10657 10648 10637 10626 10614 10601 10587 10572 10556 10541 10528 10518 10511 10506 10503 10503 10504 10506 10516 10526 10536 10544 10553 10561 10569 10577 10584 10590 10594 10598 10606 10615 10624 10633 10642 10649 10655 10660 10664 10666 10668 10671 10671 10672 10673
10678 10671 10664 10657 10649 10640 10629 10620 10609 10597 10584 10572 10558 10547 10539 10531 10524 10521 10521 10528 10533 10540 10546 10555 10562 10569 10577 10584 10590 10596 10601 10607 10614 10620 10627 10635 10642 10648 10652 10656 10659 10662 10664 10666 10667 10666 10665
10683 10677 10670 10665 10658 10651 10643 10634 10625 10616 10607 10598 10586 10576 10567 10559 10552 10544 10538 10541 10544 10550 10556 10562 10569 10576 10582 10588 10594 10600 10606 10612 10618 10625 10631 10637 10642 10646 10650 10653 10656 10658 10660 10661 10660 10660 10660
10687 10682 10676 10671 10666 10659 10654 10646 10638 10631 10623 10616 10609 10598 10592 10585 10578 10572 10561 10558 10557 10559 10562 10567 10572 10579 10585 10591 10597 10603 10608 10614 10619 10625 10631 10635 10639 10644 10648 10651 10653 10655 10656 10657 10658 10659 10660
10688 10686 10682 10676 10672 10666 10661 10657 10650 10643 10637 10631 10624 10616 10613 10605 10598 10591 10579 10582 10578 10576 10576 10577 10579 10582 10585 10588 10594 10601 10607 10613 10620 10625 10630 10634 10639 10644 10647 10650 10651 10654 10656 10658 10658 10659 10659
10687 10686 10684 10681 10676 10672 10668 10664 10660 10655 10649 10644 10639 10634 10628 10622 10617 10609 10605 10602 10598 10596 10595 10595 10594 10596 10597 10599 10601 10606 10612 10618 10624 10629 10634 10637 10641 10644 10648 10651 10654 10656 10657 10658 10659 10660 10661
10685 10684 10685 10683 10680 10676 10673 10669 10666 10663 10660 10655 10651 10647 10643 10638 10632 10629 10626 10622 10618 10615 10612 10611 10611 10612 10614 10615 10616 10619 10622 10626 10630 10634 10639 10644 10648 10651 10654 10657 10658 10659 10660 10661 10662 10662 10661
10685 10684 10683 10683 10681 10679 10676 10673 10670 10668 10666 10664 10660 10656 10653 10650 10648 10646 10643 10640 10636 10634 10633 10632 10630 10630 10630 10631 10632 10635 10638 10642 10645 10648 10652 10655 10657 10660 10661 10661 10662 10663 10663 10663 10662 10660 10658
10684 10684 10682 10681 10681 10680 10679 10676 10674 10671 10669 10668 10666 10665 10662 10659 10657 10655 10653 10651 10649 10648 10647 10646 10646 10646 10646 10646 10647 10648 10650 10653 10654 10656 10658 10659 10660 10660 10661 10662 10662 10662 10661 10661 10660 10658 10655
10682 10681 10681 10680 10679 10678 10677 10676 10675 10674 10673 10671 10670 10669 10667 10666 10664 10662 10660 10658 10657 10657 10656 10655 10655 10655 10654 10654 10655 10657 10658 10659 10660 10660 10661 10661 10662 10662 10662 10661 10661 10660 10659 10658 10657 10655 10651
10676 10677 10676 10677 10677 10676 10675 10673 10673 10673 10673 10672 10671 10671 10669 10668 10667 10665 10664 10664 10664 10662 10661 10660 10659 10660 10659 10659 10659 10660 10661 10661 10661 10661 10662 10662 10661 10661 10661 10660 10660 10658 10656 10654 10653 10649 10647
10670 10671 10671 10672 10672 10673 10673 10672 10671 10671 10671 10671 10670 10670 10669 10669 10668 10667 10666 10664 10664 10664 10663 10663 10662 10662 10662 10661 10660 10660 10660 10660 10660 10660 10659 10658 10658 10658 10658 10657 10657 10654 10651 10648 10646 10643 10639
10661 10662 10664 10665 10666 10667 10668 10668 10668 10668 10668 10667 10667 10668 10668 10667 10667 10666 10665 10664 10663 10663 10662 10662 10662 10661 10661 10661 10660 10660 10660 10659 10658 10657 10657 10656 10654 10653 10651 10650 10649 10648 10645 10641 10637 10637 10633
10652 10653 10654 10657 10658 10659 10661 10662 10662 10662 10663 10663 10663 10664 10663 10663 10663 10663 10662 10662 10661 10660 10660 10660 10659 10659 10658 10658 10658 10657 10657 10656 10655 10654 10652 10651 10649 10647 10645 10642 10639 10638 10637 10634 10629 10625 10620
10639 10642 10645 10647 10648 10650 10652 10652 10654 10655 10656 10657 10657 10657 10658 10658 10657 10657 10656 10656 10656 10656 10655 10654 10654 10654 10653 10653 10652 10650 10650 10649 10648 10646 10645 10643 10641 10639 10636 10633 10631 10628 10624 10621 10618 10613 10607
10623 10628 10632 10635 10637 10638 10640 10643 10644 10645 10646 10648 10649 10649 10649 10649 10650 10650 10649 10648 10648 10648 10647 10647 10647 10646 10645 10644 10643 10642 10640 10639 10637 10636 10634 10633 10631 10628 10625 10623 10620 10615 10612 10608 10605 10597 10595
10606 10610 10615 10621 10625 10627 10629 10630 10632 10635 10635 10637 10638 10639 10639 10640 10641 10639 10640 10639 10639 10638 10638 10638 10638 10637 10636 10635 10634 10632 10631 10628 10626 10623 10620 10620 10618 10617 10614 10610 10607 10603 10599 10596 10590 10581 10573